User: anonymous   Login
Location: Unspecified
(0.0000°N, 0.0000°E)
Time: 10:00:27
(UTC+00:00)
Language:

Vela 6A - Orbit

View from above orbital plane
View from above orbital plane
View from above satellite
View from above satellite

Ground track
Ground track

The orbit data is extracted from the following two-line orbital elements,

1 04366U 70027A   15151.27147781  .00000954  00000-0  00000+0 0  9992
2 04366 049.9484 234.5675 6668575 082.7408 001.0474 00.21440653 29050
Epoch (UTC): 31 May 2015 06:30:55
Eccentricity: 0.6668575
inclination: 49.9484°
perigee height: 32904 km
apogee height: 190170 km
right ascension of ascending node: 234.5675°
argument of perigee: 82.7408°
revolutions per day: 0.21440653
mean anomaly at epoch: 1.0474°
orbit number at epoch: 2905

The dashed part of the orbit path shows where the satellite is in the earth's shadow,  

DLR